STARLINK-30263, 57642

Orbit data source: Space-Track

STARLINK-30263, 57642 is a payload satellite owned by SpaceX/Seattle (US) in LEO that was launched on Thu, 17 Aug 2023 UTC via an FALCON 9 launch vehicle from the Air Force Eastern Test Range (AFETR). Payload-class satellites include a variety of spacecraft equipped with specific instruments for various scientific and technological missions. These include communications satellites like Starlink; space stations such as the ISS; scientific satellites like the Hubble; Earth observation satellites from companies like Planet Labs, Umbra, and HawkEye 360; GPS; miniature CubeSats for education and research; and military/defense satellites.

Loading next visibility...
Identifier
57642, 2023-122L
Orbit
LEO
Country
Flag of USUS
Related business
Manufacturer
SpaceX/Seattle
Mission
Operational Commercial Communications
Bus & Motor
STARLINK V2M, Unknown motor
Mass
730 kg wet, ~700 kg dry
Launch date (UTC)
2023-08-17 (2 years ago)
Launch vehicle
FALCON 9
Launch site
Air Force Eastern Test Range (AFETR)
Object type
Payload
Rocket body
Debris
Shape & HBR
Box + 2 Pan, 14.5 m
Radar Cross Section
33.884 m², Large (>1 m²)

Expand to show TLE details & history
Last TLE update: 7 hours ago

TLE from 7 hours ago
0 STARLINK-30263
1 57642U 23122L   25243.50615213 -.00000107  00000-0  71523-5 0  9995
2 57642  43.0031  48.0087 0001153 272.2866  87.7845 15.02531500113575
Epoch: 2025-08-31T12:08Z
TLE epoch observation values (Epoch: 2025-08-31T12:08:51.544Z)
Latitude
0.00005°
Longitude
-114.13114°
Altitude
558.841 km
Speed
7.584 km/s
True Right ascension
03h 12m 02s
True Declination
0° 00' 00"
Sunlit
Object was in daylight at epoch
Visualization orbit readout
Latitude
Unknown
Longitude
Unknown
Altitude
Unknown
Speed
Unknown
Apparent Right ascension
Unknown
Apparent Declination
Unknown
Sunlit
N/A
Visualization observer readout
Local Sidereal Time
10:24:47
Azimuth
Unknown
Elevation
Unknown
Doppler factor
Unknown
Orbital elements
Apogee altitude
561.817 km
Perigee altitude
560.217 km
Semi-major axis
6,939.154 km
Eccentricity
0.00012
Inclination
43.0031°
RAAN
48.0087°
Arg. of periapsis
272.2866°
True anomaly
87.7977°
Mean anomaly
87.7845°
Eccentric anomaly
87.7911°
Mean motion
3.75477 °/min
Orbital period
95.88 mins
BSTAR
0.0000071523
Loading maneuver chart data...
Computing Atmospheric mass density...
Loading historical data...
Loading historical data...
Loading historical data...
Loading historical data...
Loading historical data...
Loading historical data...
Loading historical data...

Documentation

Showing up to 5 results
|